Martinsville, VA

9:16 PM EDT on October 16, 2017 (GMT -0400)
Blue Ridge

Weather History for KMTV - February, 2014

Change the Weather History Date:

Tuesday, February 25, 2014

  Actual Average (KINT) Record (KINT)
Temperature  
Mean Temperature 37 °F -  
Max Temperature 50 °F 52 °F 77 °F (1982)
Min Temperature 24 °F 34 °F 4 °F (1967)
Degree Days  
Heating Degree Days 28    
Moisture  
Dew Point 19 °F    
Average Humidity 51    
Maximum Humidity 84    
Minimum Humidity 26    
Precipitation  
Precipitation 0.00 in - - ()
Sea Level Pressure  
Sea Level Pressure 30.04 in    
Wind  
Wind Speed 2 mph (North)    
Max Wind Speed 13 mph    
Max Gust Speed 21 mph    
Visibility 10 miles    
Events      
Averages and records for this station are not official NWS values.
T = Trace of Precipitation, MM = Missing Value Source: NWS Daily Summary

Daily Weather History Graph

Daily Weather History Graph

Search for Another Location

Airport or City:

Trip Planner

Search our weather history database for the weather conditions in past years. The results will help you decide how hot, cold, wet, or windy it might be!

Date:

Astronomy

Feb. 25, 2014 Rise Set
Actual Time 6:56 AM EST 6:10 PM EST
Civil Twilight 6:29 AM EST 6:36 PM EST
Nautical Twilight 5:59 AM EST 7:06 PM EST
Astronomical Twilight 5:30 AM EST 7:36 PM EST
Moon 3:45 AM EST (2/25) 2:18 PM EST (2/25)
Length of Visible Light 12h 06m
Length of Day
11h 14m
Waning Crescent, 18% of the Moon is Illuminated
Feb 25
Waning Crescent
Mar 1
New
Mar 8
First Quarter
Mar 16
Full
Mar 23
Last Quarter

Hourly Weather History & Observations

Time (EST) Temp. Windchill Dew Point Humidity Pressure Visibility Wind Dir Wind Speed Gust Speed Precip Events Conditions
12:15 AM 29.3 °F - 17.6 °F 62% 30.12 in 10.0 mi Calm Calm - N/A   Clear
12:35 AM 28.8 °F - 16.7 °F 61% 30.11 in 10.0 mi Calm Calm - N/A   Clear
12:55 AM 28.4 °F - 18.7 °F 67% 30.11 in 10.0 mi Calm Calm - N/A   Clear
1:15 AM 28.4 °F - 18.7 °F 67% 30.11 in 10.0 mi Calm Calm - N/A   Clear
1:35 AM 28.0 °F - 19.4 °F 70% 30.11 in 10.0 mi Calm Calm - N/A   Clear
1:55 AM 28.8 °F - 18.3 °F 65% 30.11 in 10.0 mi Calm Calm - N/A   Clear
2:15 AM 28.6 °F - 20.3 °F 71% 30.11 in 10.0 mi Calm Calm - N/A   Clear
2:35 AM 28.2 °F - 20.1 °F 72% 30.10 in 10.0 mi Calm Calm - N/A   Clear
2:55 AM 27.3 °F - 19.9 °F 74% 30.09 in 10.0 mi Calm Calm - N/A   Clear
3:15 AM 27.5 °F - 19.6 °F 72% 30.09 in 10.0 mi Calm Calm - N/A   Clear
3:35 AM 26.6 °F - 19.6 °F 75% 30.09 in 10.0 mi Calm Calm - N/A   Clear
3:55 AM 25.7 °F - 19.8 °F 78% 30.09 in 10.0 mi Calm Calm - N/A   Clear
4:15 AM 26.1 °F - 19.4 °F 76% 30.09 in 10.0 mi Calm Calm - N/A   Clear
4:35 AM 25.7 °F - 19.6 °F 78% 30.09 in 10.0 mi Calm Calm - N/A   Clear
4:55 AM 25.3 °F - 19.6 °F 79% 30.08 in 10.0 mi Calm Calm - N/A   Scattered Clouds
5:15 AM 24.6 °F - 19.2 °F 80% 30.09 in 10.0 mi Calm Calm - N/A   Scattered Clouds
5:35 AM 24.6 °F - 20.3 °F 84% 30.08 in 10.0 mi Calm Calm - N/A   Scattered Clouds
5:55 AM 24.3 °F - 19.8 °F 83% 30.08 in 10.0 mi Calm Calm - N/A   Scattered Clouds
6:15 AM 24.6 °F - 19.8 °F 82% 30.07 in 10.0 mi Calm Calm - N/A   Mostly Cloudy
6:35 AM 27.3 °F - 20.7 °F 76% 30.10 in 10.0 mi Calm Calm - N/A   Overcast
6:55 AM 27.5 °F - 21.2 °F 77% 30.09 in 10.0 mi Calm Calm - N/A   Overcast
7:15 AM 28.0 °F - 22.5 °F 80% 30.09 in 10.0 mi Calm Calm - N/A   Overcast
7:35 AM 28.8 °F - 21.9 °F 76% 30.09 in 10.0 mi Calm Calm - N/A   Overcast
7:55 AM 29.7 °F - 22.1 °F 73% 30.09 in 10.0 mi Calm Calm - N/A   Overcast
8:15 AM 30.9 °F - 21.7 °F 69% 30.09 in 10.0 mi Calm Calm - N/A   Overcast
8:35 AM 31.8 °F - 24.3 °F 74% 30.10 in 10.0 mi Calm Calm - N/A   Overcast
8:55 AM 32.5 °F - 21.7 °F 64% 30.09 in 10.0 mi Calm Calm - N/A   Overcast
9:15 AM - - - N/A% - - North - - N/A   Unknown
9:35 AM - - - N/A% - - North - - N/A   Unknown
9:55 AM 36.5 °F 32.7 °F 25.2 °F 64% 30.08 in 10.0 mi NNE 4.6 mph - N/A   Overcast
10:15 AM 37.9 °F 34.4 °F 22.1 °F 53% 30.09 in 10.0 mi North 4.6 mph - N/A   Overcast
10:35 AM 39.9 °F - 20.7 °F 46% 30.09 in 10.0 mi Calm Calm - N/A   Overcast
10:55 AM 41.4 °F 39.4 °F 14.9 °F 34% 30.08 in 10.0 mi NE 3.5 mph - N/A   Overcast
11:15 AM - - - N/A% 30.07 in 10.0 mi Calm Calm - N/A   Overcast
11:35 AM 43.3 °F - 12.4 °F 28% 30.07 in 10.0 mi Calm Calm - N/A   Overcast
11:55 AM 44.1 °F - 12.2 °F 28% 30.06 in 10.0 mi Calm Calm - N/A   Overcast
12:15 PM 44.6 °F - 11.8 °F 27% 30.05 in 10.0 mi Calm Calm - N/A   Overcast
12:35 PM 47.1 °F - 13.8 °F 26% 30.04 in 10.0 mi North 6.9 mph - N/A   Overcast
12:55 PM 46.8 °F - 14.5 °F 27% 30.03 in 10.0 mi NNE 9.2 mph - N/A   Overcast
1:15 PM 47.5 °F - 16.2 °F 29% 30.02 in 10.0 mi NNE 8.1 mph 16.1 mph N/A   Overcast
1:35 PM 47.5 °F - 16.3 °F 29% 30.01 in 10.0 mi NNW 10.4 mph 16.1 mph N/A   Overcast
1:55 PM 48.6 °F - 16.7 °F 28% 30.00 in 10.0 mi NNW 12.7 mph 18.4 mph N/A   Overcast
2:15 PM 48.4 °F - 15.8 °F 27% 30.00 in 10.0 mi North 8.1 mph 17.3 mph N/A   Overcast
2:35 PM 47.7 °F - 15.6 °F 28% 29.99 in 10.0 mi NNW 9.2 mph - N/A   Overcast
2:55 PM 50.0 °F - 16.0 °F 26% 29.99 in 10.0 mi NNW 12.7 mph 20.7 mph N/A   Mostly Cloudy
3:15 PM 49.3 °F - 15.6 °F 26% 29.98 in 10.0 mi North 12.7 mph 19.6 mph N/A   Scattered Clouds
3:35 PM 50.0 °F - 17.8 °F 28% 29.98 in 10.0 mi NW 11.5 mph 19.6 mph N/A   Clear
3:55 PM 49.3 °F - 18.9 °F 30% 29.97 in 10.0 mi West 6.9 mph 16.1 mph N/A   Clear
4:15 PM 49.3 °F - 20.1 °F 32% 29.98 in 10.0 mi WSW 6.9 mph - N/A   Clear
4:35 PM 50.5 °F - 20.8 °F 31% 29.98 in 10.0 mi NW 10.4 mph 17.3 mph N/A   Clear
4:55 PM 50.0 °F - 20.3 °F 31% 29.97 in 10.0 mi NW 6.9 mph 10.4 mph N/A   Clear
5:15 PM 49.1 °F - 19.6 °F 31% 29.97 in 10.0 mi NW 6.9 mph 16.1 mph N/A   Clear
5:35 PM 46.8 °F - 19.8 °F 34% 29.96 in 10.0 mi NW 8.1 mph - N/A   Clear
5:55 PM 45.9 °F 42.3 °F 19.8 °F 35% 29.97 in 10.0 mi NW 6.9 mph - N/A   Clear
6:15 PM 45.1 °F 39.5 °F 20.1 °F 37% 29.97 in 10.0 mi NNW 11.5 mph - N/A   Clear
6:35 PM 45.0 °F 39.3 °F 20.1 °F 37% 29.98 in 10.0 mi NNW 11.5 mph - N/A   Clear
6:55 PM 44.1 °F 39.0 °F 19.8 °F 38% 29.98 in 10.0 mi North 9.2 mph - N/A   Clear
7:15 PM 42.3 °F 39.4 °F 19.2 °F 40% 30.00 in 10.0 mi NNE 4.6 mph - N/A   Clear
7:35 PM 41.0 °F - 18.5 °F 40% 30.01 in 10.0 mi Calm Calm - N/A   Clear
7:55 PM 39.6 °F 37.4 °F 18.3 °F 42% 30.01 in 10.0 mi NE 3.5 mph - N/A   Clear
8:15 PM 40.1 °F 35.3 °F 18.7 °F 42% 30.02 in 10.0 mi North 6.9 mph - N/A   Clear
8:35 PM 39.4 °F - 18.3 °F 43% 30.02 in 10.0 mi Calm Calm - N/A   Clear
8:55 PM 38.7 °F 34.3 °F 18.5 °F 44% 30.02 in 10.0 mi North 5.8 mph - N/A   Clear
9:15 PM 37.2 °F 34.7 °F 18.1 °F 46% 30.02 in 10.0 mi NNW 3.5 mph - N/A   Clear
9:35 PM 38.5 °F - 18.3 °F 44% 30.02 in 10.0 mi Calm Calm - N/A   Clear
9:55 PM 38.3 °F 34.8 °F 18.5 °F 45% 30.02 in 10.0 mi North 4.6 mph - N/A   Clear
10:15 PM 39.0 °F 34.0 °F 18.1 °F 43% 30.02 in 10.0 mi North 6.9 mph - N/A   Scattered Clouds
10:35 PM 38.8 °F 35.4 °F 18.0 °F 43% 30.02 in 10.0 mi NNE 4.6 mph - N/A   Mostly Cloudy
10:55 PM 38.1 °F 34.6 °F 18.3 °F 45% 30.01 in 10.0 mi North 4.6 mph - N/A   Scattered Clouds
11:15 PM 37.8 °F 35.3 °F 18.3 °F 46% 30.00 in 10.0 mi North 3.5 mph - N/A   Mostly Cloudy
11:35 PM 36.9 °F - 18.1 °F 47% 30.00 in 10.0 mi Calm Calm - N/A   Overcast
11:55 PM 37.9 °F - 18.5 °F 46% 29.99 in 10.0 mi Calm Calm - N/A   Overcast